[[{"header":{"parameterUnit":"m.s-1","parameterCategory":1,"la1":30.2991,"la2":30.254,"lo1":-89.0895,"lo2":-89.0444,"dy":0.0017,"dx":0.0017,"nx":28,"ny":28,"refTime":"2025-12-10T09:00:00:Z","depth":0,"parameterNumber":2,"parameterNumberName":"U-component_of_WINDS"},"data":[0,0,0,0,0,0,0,0,0,0,0,0,0,0,0,0,0,0,0,0,0,0,0,0,0,0,0,0,0,0,0,0,0,0,0,0,0,0,0,0,0,0,0,0,0,0,0,0,0,0,0,0,0,0,0,0,0,0,-0.3413,-0.3414,0,-0.3518,-0.3519,-0.352,-0.36,-0.3601,-0.3602,-0.3602,-0.3711,-0.3714,-0.3716,0,0,0,0,0,0,0,0,0,0,0,0,0,-0.3284,-0.3286,-0.3413,-0.3414,-0.3415,-0.3518,-0.3519,-0.3521,-0.36,-0.3601,-0.3602,-0.3603,-0.3711,-0.3713,-0.3716,0,0,0,0,0,0,0,0,0,0,0,0,0,-0.336,-0.3287,-0.3412,-0.3467,-0.3473,-0.3517,-0.3519,-0.3521,-0.36,-0.3601,-0.3602,-0.3603,-0.371,-0.3713,-0.3716,-0.3715,0,0,-0.3727,-0.3728,0,0,0,0,0,0,0,0,-0.3355,-0.3364,-0.3458,-0.3463,-0.347,-0.3547,-0.3514,-0.3586,-0.36,-0.3552,-0.3602,-0.3604,-0.3656,-0.3664,-0.3681,-0.372,-0.3725,-0.3727,-0.3729,-0.373,-0.3731,0,0,0,0,0,0,0,-0.335,-0.336,-0.3454,-0.3459,-0.3467,-0.3488,-0.35,-0.3528,-0.3596,-0.3556,-0.3562,-0.3573,-0.366,-0.3678,-0.3684,-0.3726,-0.3727,-0.373,-0.3732,-0.3733,-0.3772,-0.3771,0,0,0,0,0,0,-0.3336,-0.3355,-0.3451,-0.3457,-0.3414,-0.3489,-0.3503,-0.3521,-0.3596,-0.3609,-0.3572,-0.3577,-0.3672,-0.368,-0.3688,-0.3693,-0.373,-0.3733,-0.3735,-0.3773,-0.3772,-0.3771,0,0,0,0,0,0,-0.3333,-0.3344,-0.3447,-0.3408,-0.3423,-0.349,-0.3511,-0.3523,-0.3541,-0.3609,-0.3622,-0.3578,-0.3673,-0.3684,-0.3708,-0.3697,-0.3735,-0.3738,-0.3774,-0.3773,-0.3772,-0.37,0,0,0,0,0,0,-0.3329,-0.3342,-0.3341,-0.3407,-0.3425,-0.3463,-0.351,-0.3524,-0.3546,-0.3553,-0.3617,-0.3629,-0.3674,-0.3703,-0.3712,-0.3703,-0.3741,-0.3776,-0.3774,-0.3772,-0.3704,-0.3696,-0.369,0,0,0,0,0,-0.3324,-0.3316,-0.334,-0.3351,-0.3424,-0.3462,-0.3472,-0.3524,-0.3545,-0.3545,-0.359,-0.3627,-0.3698,-0.3705,-0.3715,-0.3707,-0.3776,-0.3774,-0.3772,-0.3707,-0.3698,-0.369,0,0,0,0,0,0,-0.3246,-0.3326,-0.3353,-0.3367,-0.3407,-0.3476,-0.3477,-0.3513,-0.3548,-0.3553,-0.3617,-0.3631,-0.3648,-0.3681,-0.3687,-0.3711,-0.3742,-0.3742,-0.3689,-0.3681,-0.3674,-0.3665,-0.3743,0,0,0,0,0,-0.3231,-0.3254,-0.3323,-0.3328,-0.3347,-0.3409,-0.3427,-0.3464,-0.3508,-0.3526,-0.3572,-0.3614,-0.3646,-0.3666,-0.3699,-0.371,-0.3726,-0.371,-0.3703,-0.3697,-0.3696,-0.3705,-0.3699,-0.3764,-0.3764,-0.3764,0,0,-0.3199,-0.3245,-0.3256,-0.3314,-0.335,-0.3373,-0.3422,-0.3445,-0.3464,-0.353,-0.3555,-0.3591,-0.3643,-0.366,-0.3671,-0.3688,-0.3682,-0.3694,-0.3689,-0.3691,-0.3702,-0.3696,-0.3691,-0.3762,-0.3763,-0.3763,0,0,-0.3152,-0.319,-0.3199,-0.3234,-0.3288,-0.3329,-0.3332,-0.3396,-0.3422,-0.3449,-0.3499,-0.3524,-0.3577,-0.3612,-0.3637,-0.3608,-0.3644,-0.3617,-0.3581,-0.359,-0.3585,-0.358,-0.357,-0.3566,-0.3616,-0.3616,-0.3616,0,-0.3106,-0.3142,-0.3199,-0.3219,-0.3244,-0.3306,-0.3317,-0.3349,-0.341,-0.3426,-0.3445,-0.3515,-0.3555,-0.3582,-0.3575,-0.3594,-0.3599,-0.3609,-0.3581,-0.3577,-0.3574,-0.3565,-0.3561,-0.3612,-0.3613,-0.3613,-0.3613,0,-0.3083,-0.3108,-0.3109,-0.3167,-0.3193,-0.3208,-0.3269,-0.3288,-0.3324,-0.3364,-0.3392,-0.3442,-0.3487,-0.3497,-0.3532,-0.353,-0.3539,-0.3569,-0.3601,-0.3563,-0.3556,-0.3553,-0.3607,-0.3608,-0.3609,-0.361,0,0,-0.2987,-0.3079,-0.3078,-0.3106,-0.3172,-0.3193,-0.3212,-0.3257,-0.3272,-0.3314,-0.3332,-0.3378,-0.3406,-0.3434,-0.3475,-0.3482,-0.3457,-0.3511,-0.3513,-0.3499,-0.3459,-0.3435,-0.343,-0.3483,-0.3482,-0.3482,-0.3455,0,-0.295,-0.2987,-0.304,-0.306,-0.3085,-0.3146,-0.3163,-0.3206,-0.3245,-0.3273,-0.3317,-0.3348,-0.3383,-0.3401,-0.3411,-0.3457,-0.3449,-0.3461,-0.35,-0.3501,-0.3483,-0.3427,-0.3401,-0.3373,-0.3452,-0.3452,-0.3451,0,-0.2911,-0.2949,-0.2971,-0.3037,-0.305,-0.3064,-0.311,-0.3136,-0.3187,-0.3215,-0.3248,-0.3292,-0.3317,-0.3348,-0.3384,-0.339,-0.3411,-0.3436,-0.3437,-0.3441,-0.3472,-0.3428,-0.3365,-0.336,-0.3447,-0.3448,-0.3448,0,-0.2838,-0.2896,-0.2917,-0.2939,-0.3016,-0.3025,-0.3058,-0.311,-0.3134,-0.3175,-0.3192,-0.3235,-0.3259,-0.3292,-0.3348,-0.3365,-0.3379,-0.3413,-0.3403,-0.3401,-0.3401,-0.34,-0.3339,-0.3416,-0.3416,-0.3416,-0.3416,0,-0.279,-0.2801,-0.2886,-0.2898,-0.2913,-0.2976,-0.299,-0.3028,-0.3075,-0.3097,-0.3154,-0.3174,-0.3247,-0.3276,-0.332,-0.3344,-0.3354,-0.3378,-0.3389,-0.3372,-0.3369,-0.3384,-0.3387,-0.3415,-0.3415,-0.3416,-0.3416,0,-0.271,-0.2767,-0.2794,-0.2866,-0.2885,-0.2892,-0.2954,-0.297,-0.3014,-0.3042,-0.3052,-0.3121,-0.3158,-0.3217,-0.3272,-0.3302,-0.3318,-0.3338,-0.33,-0.3307,-0.3293,-0.3293,-0.3238,-0.3234,-0.3315,-0.3314,-0.3313,0,-0.2675,-0.2685,-0.2758,-0.2777,-0.2808,-0.2838,-0.2863,-0.2927,-0.2951,-0.3012,-0.302,-0.3062,-0.3099,-0.3156,-0.3212,-0.3255,-0.3275,-0.3253,-0.3282,-0.3265,-0.3274,-0.3272,-0.3273,-0.3246,-0.3244,-0.3243,-0.3243,0,-0.2606,-0.2635,-0.2668,-0.2713,-0.2741,-0.2779,-0.282,-0.2833,-0.2906,-0.2931,-0.297,-0.2998,-0.3056,-0.3097,-0.3148,-0.3184,-0.3225,-0.3234,-0.3234,-0.3215,-0.3192,-0.3204,-0.3281,-0.3234,-0.3235,-0.3236,-0.3236,-0.3236,-0.2547,-0.2559,-0.2613,-0.265,-0.2688,-0.2725,-0.2744,-0.2791,-0.2824,-0.2875,-0.2912,-0.2949,-0.3003,-0.3076,-0.3109,-0.314,-0.3158,-0.3158,-0.3158,-0.3156,-0.3149,-0.3189,-0.315,-0.315,-0.3151,-0.3151,-0.3151,0,-0.2481,-0.2519,-0.2552,-0.2608,-0.2637,-0.2676,-0.2724,-0.2746,-0.2777,-0.2824,-0.286,-0.2906,-0.2947,-0.3007,-0.3053,-0.3066,-0.3086,-0.3076,-0.3074,-0.3082,-0.3131,-0.3126,-0.3058,-0.3059,-0.3059,-0.3059,-0.3059,-0.3059,-0.2449,-0.2472,-0.2508,-0.2551,-0.259,-0.2627,-0.2651,-0.2687,-0.2724,-0.2773,-0.2807,-0.2847,-0.2899,-0.295,-0.299,-0.3007,-0.3021,-0.3004,-0.3026,-0.307,-0.3079,-0.3087,-0.3082,-0.3007,-0.3007,-0.2975,-0.2975,-0.2975]},{"header":{"parameterUnit":"m.s-1","parameterCategory":1,"la1":30.2991,"la2":30.254,"lo1":-89.0895,"lo2":-89.0444,"dy":0.0017,"dx":0.0017,"nx":28,"ny":28,"refTime":"2025-12-10T09:00:00:Z","depth":0,"parameterNumber":3,"parameterNumberName":"V-component_of_WINDS"},"data":[0,0,0,0,0,0,0,0,0,0,0,0,0,0,0,0,0,0,0,0,0,0,0,0,0,0,0,0,0,0,0,0,0,0,0,0,0,0,0,0,0,0,0,0,0,0,0,0,0,0,0,0,0,0,0,0,0,0,0.437,0.4368,0,0.4181,0.4179,0.4177,0.4021,0.402,0.4018,0.4016,0.3815,0.3811,0.3807,0,0,0,0,0,0,0,0,0,0,0,0,0,0.4587,0.4584,0.437,0.4368,0.4365,0.4181,0.4179,0.4176,0.4021,0.402,0.4018,0.4016,0.3816,0.3812,0.3807,0,0,0,0,0,0,0,0,0,0,0,0,0,0.4455,0.4583,0.437,0.4266,0.4255,0.4182,0.4179,0.4175,0.4022,0.4019,0.4017,0.4015,0.3818,0.3812,0.3807,0.3819,0,0,0.3789,0.3786,0,0,0,0,0,0,0,0,0.4463,0.4447,0.4284,0.4273,0.426,0.4122,0.4181,0.4056,0.4022,0.411,0.4016,0.4014,0.3919,0.3904,0.3874,0.381,0.3801,0.3788,0.3785,0.3782,0.3781,0,0,0,0,0,0,0,0.4472,0.4454,0.4295,0.4282,0.4267,0.4226,0.4204,0.4157,0.403,0.4102,0.4091,0.4071,0.3912,0.388,0.3868,0.3798,0.3788,0.3783,0.378,0.3778,0.3733,0.3735,0,0,0,0,0,0,0.4498,0.4463,0.4301,0.4289,0.4358,0.4224,0.42,0.4169,0.403,0.4007,0.4073,0.4064,0.3891,0.3875,0.3861,0.3866,0.3782,0.3777,0.3774,0.373,0.3733,0.3736,0,0,0,0,0,0,0.4504,0.4486,0.4308,0.4373,0.4347,0.4223,0.4189,0.4167,0.4135,0.4008,0.3984,0.4065,0.3889,0.3869,0.3831,0.3857,0.3774,0.3769,0.3728,0.3731,0.3734,0.3878,0,0,0,0,0,0,0.4511,0.4488,0.4495,0.4374,0.4344,0.4286,0.4191,0.4165,0.4126,0.4113,0.3994,0.3972,0.3885,0.384,0.3825,0.3848,0.3765,0.3725,0.3729,0.3733,0.3871,0.3886,0.39,0,0,0,0,0,0.4519,0.4541,0.4496,0.4477,0.435,0.4287,0.427,0.4172,0.4129,0.4133,0.4051,0.3976,0.3856,0.3838,0.3819,0.3841,0.3723,0.3728,0.3733,0.3864,0.3883,0.3899,0,0,0,0,0,0,0.4665,0.4523,0.4472,0.4456,0.4385,0.4261,0.4263,0.4196,0.4134,0.4124,0.4002,0.3976,0.3952,0.3891,0.3873,0.3844,0.3779,0.3781,0.3886,0.3902,0.3917,0.3932,0.376,0,0,0,0,0,0.4696,0.466,0.4537,0.4534,0.4502,0.4389,0.4358,0.4289,0.421,0.4178,0.4093,0.4017,0.3962,0.3928,0.387,0.386,0.3831,0.3865,0.388,0.3892,0.3895,0.3884,0.3898,0.3752,0.3752,0.3752,0,0,0.4758,0.4676,0.4661,0.4562,0.4499,0.4462,0.4365,0.433,0.43,0.4172,0.4132,0.4067,0.3973,0.3949,0.3934,0.3898,0.3929,0.3899,0.391,0.3906,0.3891,0.3905,0.3917,0.3756,0.3755,0.3755,0,0,0.4854,0.4789,0.478,0.4719,0.4626,0.455,0.4549,0.4434,0.4387,0.4346,0.4248,0.4209,0.4117,0.4054,0.401,0.408,0.4008,0.4064,0.414,0.4131,0.4142,0.4152,0.4177,0.4187,0.4067,0.4068,0.4068,0,0.4943,0.4887,0.4783,0.4755,0.4713,0.4597,0.4585,0.453,0.4422,0.4395,0.4356,0.4238,0.4166,0.4126,0.4143,0.4111,0.4103,0.4078,0.4149,0.4158,0.4165,0.4188,0.4197,0.4075,0.4074,0.4074,0.4073,0,0.5,0.4962,0.4965,0.4867,0.4825,0.4805,0.4696,0.4666,0.4599,0.4527,0.4485,0.4395,0.4317,0.4301,0.4235,0.425,0.4231,0.4173,0.4105,0.4189,0.4208,0.4215,0.4086,0.4083,0.4081,0.4079,0,0,0.5185,0.503,0.5033,0.4986,0.4874,0.4841,0.4813,0.474,0.4716,0.4643,0.4617,0.4541,0.4486,0.4436,0.4361,0.4353,0.4414,0.4294,0.429,0.432,0.4424,0.4471,0.4483,0.4364,0.4365,0.4366,0.4432,0,0.5263,0.5213,0.5119,0.5097,0.5059,0.4947,0.4923,0.485,0.4781,0.4736,0.4657,0.4606,0.4537,0.4506,0.4493,0.441,0.4433,0.4403,0.4337,0.4336,0.4366,0.4492,0.4541,0.4608,0.4439,0.444,0.4441,0,0.5349,0.5287,0.5263,0.5152,0.5133,0.5114,0.5038,0.4997,0.491,0.486,0.4805,0.4723,0.4685,0.4622,0.4568,0.4549,0.4515,0.447,0.447,0.4461,0.4395,0.4488,0.4627,0.4638,0.4452,0.4451,0.445,0,0.5488,0.5397,0.5371,0.5334,0.5204,0.5193,0.5138,0.5049,0.501,0.4942,0.4915,0.4843,0.4803,0.4747,0.4647,0.4611,0.4603,0.4532,0.4559,0.4562,0.4564,0.4566,0.4702,0.4541,0.454,0.454,0.454,0,0.5586,0.5576,0.5431,0.5416,0.54,0.5289,0.5275,0.5208,0.513,0.5097,0.4993,0.4963,0.4832,0.4786,0.4706,0.4673,0.4655,0.4612,0.4591,0.4622,0.4628,0.46,0.4593,0.4543,0.4542,0.4542,0.4541,0,0.5739,0.5642,0.5606,0.5487,0.5456,0.545,0.5345,0.5324,0.5248,0.5207,0.5191,0.5071,0.5011,0.4905,0.4814,0.476,0.4743,0.4706,0.4774,0.4761,0.4795,0.4794,0.4918,0.4929,0.4761,0.4763,0.4764,0,0.581,0.5799,0.5679,0.5651,0.5601,0.5556,0.5517,0.5405,0.5368,0.5268,0.5258,0.519,0.5131,0.504,0.4943,0.4872,0.4834,0.4882,0.4822,0.4854,0.4835,0.4838,0.4836,0.4897,0.4899,0.4901,0.4903,0,0.5945,0.5897,0.5846,0.5778,0.5735,0.5675,0.5609,0.5591,0.5464,0.5426,0.5366,0.532,0.5228,0.5162,0.5077,0.5015,0.4938,0.4922,0.4924,0.4957,0.4997,0.4977,0.4813,0.492,0.4918,0.4917,0.4916,0.4915,0.6059,0.6045,0.5958,0.5904,0.5843,0.5784,0.5759,0.568,0.5629,0.5548,0.5483,0.5428,0.5337,0.5216,0.5159,0.5112,0.5075,0.5079,0.508,0.5083,0.5096,0.5004,0.5095,0.5095,0.5094,0.5093,0.5093,0,0.619,0.6128,0.608,0.5993,0.595,0.5882,0.5805,0.5773,0.5726,0.565,0.5595,0.5524,0.5459,0.5356,0.5282,0.5263,0.5226,0.5248,0.5249,0.5236,0.5132,0.5138,0.528,0.528,0.528,0.528,0.528,0.5279,0.6253,0.6226,0.6168,0.6108,0.6044,0.5992,0.5954,0.5898,0.5837,0.5764,0.5711,0.5645,0.5557,0.5476,0.5412,0.5383,0.5361,0.5395,0.5355,0.526,0.5243,0.5227,0.5232,0.539,0.5391,0.5462,0.5462,0.5463]}]]